When you browse on this site, cookies collect data to enhance your experience and personalize the content and advertising you see.
Visit our Privacy Policy to learn more. By continuing to use the site, you agree to this use of cookies and data.
  • En España
  • Lista de países
  • Para 7 días
  • Temperatura del agua
  • Mapa Satelital
  • El tiempo en el mapa
  • Informadores
  • user-avatar
    Iniciar sesión

    Tiempo cada hora Chervoni Luky

    Hoy, 22 Marzo, Viernes

    Tiempo Temperatura Precipitaciones Viento Presión Humedad
    00:00 +2°C° 0 mm 2 mps 758 mmHg 86%
    01:00 +2°C° 0 mm 2 mps 758 mmHg 88%
    02:00 +2°C° 0 mm 2 mps 757 mmHg 90%
    03:00 +1°C° 0.1 mm 3 mps 756 mmHg 90%
    04:00 +2°C° 0.1 mm 3 mps 756 mmHg 91%
    05:00 +1°C° 0.1 mm 4 mps 755 mmHg 92%
    06:00 +1°C° 0.7 mm 4 mps 755 mmHg 92%
    07:00 +2°C° 0.7 mm 5 mps 754 mmHg 93%
    08:00 +2°C° 0.7 mm 6 mps 754 mmHg 93%
    09:00 +4°C° 0.2 mm 6 mps 753 mmHg 91%
    10:00 +5°C° 0.2 mm 6 mps 753 mmHg 89%
    11:00 +6°C° 0.2 mm 7 mps 752 mmHg 86%
    12:00 +7°C° 0.3 mm 8 mps 752 mmHg 77%
    13:00 +7°C° 0.3 mm 10 mps 752 mmHg 68%
    14:00 +7°C° 0.3 mm 11 mps 752 mmHg 59%
    15:00 +7°C° 0 mm 10 mps 752 mmHg 56%
    16:00 +6°C° 0 mm 9 mps 753 mmHg 52%
    17:00 +5°C° 0 mm 8 mps 753 mmHg 48%
    18:00 +4°C° 0 mm 7 mps 754 mmHg 51%
    19:00 +3°C° 0 mm 6 mps 754 mmHg 55%
    20:00 +1°C° 0 mm 6 mps 755 mmHg 58%
    21:00 +1°C° 0 mm 6 mps 754 mmHg 59%
    22:00 +1°C° 0 mm 6 mps 754 mmHg 59%
    23:00 +1°C° 0 mm 6 mps 754 mmHg 60%

    Mañana, 23 Marzo, Sábado

    Tiempo Temperatura Precipitaciones Viento Presión Humedad
    00:00 -1°C° 0 mm 6 mps 754 mmHg 62%
    01:00 -2°C° 0 mm 6 mps 754 mmHg 64%
    02:00 -2°C° 0 mm 6 mps 754 mmHg 67%
    03:00 -2°C° 0.1 mm 7 mps 754 mmHg 69%
    04:00 -2°C° 0.1 mm 7 mps 755 mmHg 72%
    05:00 -2°C° 0.1 mm 7 mps 755 mmHg 75%
    06:00 -2°C° 0 mm 7 mps 755 mmHg 74%
    07:00 -2°C° 0 mm 8 mps 755 mmHg 73%
    08:00 -1°C° 0 mm 8 mps 755 mmHg 72%
    09:00 0°C° 0 mm 8 mps 755 mmHg 69%
    10:00 +1°C° 0 mm 8 mps 756 mmHg 67%
    11:00 +2°C° 0 mm 7 mps 756 mmHg 65%
    12:00 +3°C° 0 mm 7 mps 756 mmHg 65%
    13:00 +3°C° 0 mm 7 mps 756 mmHg 65%
    14:00 +3°C° 0 mm 7 mps 756 mmHg 65%
    15:00 +3°C° 0 mm 6 mps 756 mmHg 67%
    16:00 +3°C° 0 mm 5 mps 756 mmHg 68%
    17:00 +3°C° 0 mm 5 mps 756 mmHg 69%
    18:00 +3°C° 0 mm 4 mps 757 mmHg 73%
    19:00 +2°C° 0 mm 3 mps 757 mmHg 77%
    20:00 +2°C° 0 mm 3 mps 757 mmHg 81%
    21:00 +2°C° 0 mm 2 mps 757 mmHg 84%
    22:00 +1°C° 0 mm 2 mps 757 mmHg 86%
    23:00 +1°C° 0 mm 2 mps 757 mmHg 88%

    Pasado mañana, 24 Marzo, Domingo

    Tiempo Temperatura Precipitaciones Viento Presión Humedad
    00:00 +2°C° 0 mm 1 mps 757 mmHg 89%
    01:00 +1°C° 0 mm 1 mps 756 mmHg 89%
    02:00 +1°C° 0 mm 1 mps 756 mmHg 89%
    03:00 +1°C° 0 mm 1 mps 756 mmHg 89%
    04:00 -1°C° 0 mm 2 mps 755 mmHg 88%
    05:00 -1°C° 0 mm 2 mps 755 mmHg 87%
    06:00 +1°C° 0 mm 2 mps 754 mmHg 82%
    07:00 +1°C° 0 mm 3 mps 754 mmHg 78%
    08:00 +2°C° 0 mm 3 mps 754 mmHg 73%
    09:00 +3°C° 0.2 mm 3 mps 753 mmHg 72%
    10:00 +3°C° 0.2 mm 4 mps 753 mmHg 70%
    11:00 +4°C° 0.2 mm 4 mps 753 mmHg 69%
    12:00 +4°C° 0 mm 4 mps 752 mmHg 69%
    13:00 +4°C° 0 mm 4 mps 752 mmHg 70%
    14:00 +4°C° 0 mm 4 mps 751 mmHg 71%
    15:00 +4°C° 0 mm 3 mps 751 mmHg 73%
    16:00 +4°C° 0 mm 3 mps 751 mmHg 76%
    17:00 +6°C° 0 mm 2 mps 751 mmHg 79%
    18:00 +5°C° 0 mm 2 mps 751 mmHg 79%
    19:00 +4°C° 0 mm 2 mps 751 mmHg 79%
    20:00 +2°C° 0 mm 3 mps 751 mmHg 79%
    21:00 +3°C° 0 mm 2 mps 751 mmHg 78%
    22:00 +3°C° 0 mm 2 mps 751 mmHg 77%
    23:00 +2°C° 0 mm 2 mps 751 mmHg 75%

    25 Marzo, Lunes

    Tiempo Temperatura Precipitaciones Viento Presión Humedad
    00:00 +2°C° 0 mm 2 mps 751 mmHg 76%
    01:00 +2°C° 0 mm 2 mps 751 mmHg 78%
    02:00 +1°C° 0 mm 2 mps 751 mmHg 79%
    03:00 +1°C° 0 mm 2 mps 751 mmHg 79%
    04:00 +1°C° 0 mm 2 mps 750 mmHg 79%
    05:00 +1°C° 0 mm 2 mps 750 mmHg 79%
    06:00 +2°C° 0 mm 2 mps 750 mmHg 76%
    07:00 +2°C° 0 mm 2 mps 750 mmHg 74%
    08:00 +3°C° 0 mm 2 mps 750 mmHg 71%
    09:00 +4°C° 0.1 mm 2 mps 750 mmHg 66%
    10:00 +5°C° 0.1 mm 3 mps 750 mmHg 61%
    11:00 +7°C° 0.1 mm 3 mps 750 mmHg 56%
    12:00 +6°C° 0.3 mm 4 mps 749 mmHg 54%
    13:00 +6°C° 0.3 mm 4 mps 749 mmHg 52%
    14:00 +6°C° 0.3 mm 4 mps 749 mmHg 49%
    15:00 +7°C° 0.1 mm 3 mps 749 mmHg 51%
    16:00 +7°C° 0.1 mm 3 mps 748 mmHg 53%
    17:00 +7°C° 0.1 mm 2 mps 748 mmHg 55%
    18:00 +5°C° 0 mm 2 mps 748 mmHg 60%
    19:00 +4°C° 0 mm 2 mps 748 mmHg 65%
    20:00 +3°C° 0 mm 2 mps 749 mmHg 70%
    21:00 +4°C° 0 mm 1 mps 749 mmHg 71%
    22:00 +4°C° 0 mm 1 mps 749 mmHg 73%
    23:00 +3°C° 0 mm 1 mps 749 mmHg 75%

    26 Marzo, Martes

    Tiempo Temperatura Precipitaciones Viento Presión Humedad
    00:00 +3°C° 0 mm 1 mps 749 mmHg 76%
    01:00 +3°C° 0 mm 1 mps 750 mmHg 77%
    02:00 +3°C° 0 mm 1 mps 750 mmHg 78%
    03:00 +2°C° 0 mm 1 mps 750 mmHg 80%
    04:00 +2°C° 0 mm 1 mps 750 mmHg 81%
    05:00 +2°C° 0 mm 1 mps 750 mmHg 82%
    06:00 +3°C° 0 mm 1 mps 751 mmHg 80%
    07:00 +4°C° 0 mm 1 mps 751 mmHg 77%
    08:00 +3°C° 0 mm 2 mps 752 mmHg 74%
    09:00 +5°C° 0 mm 2 mps 752 mmHg 69%
    10:00 +6°C° 0 mm 2 mps 753 mmHg 64%
    11:00 +7°C° 0 mm 3 mps 753 mmHg 58%
    12:00 +8°C° 0 mm 3 mps 754 mmHg 54%
    13:00 +8°C° 0 mm 3 mps 754 mmHg 51%
    14:00 +8°C° 0 mm 4 mps 754 mmHg 47%
    15:00 +7°C° 0 mm 4 mps 754 mmHg 50%
    16:00 +7°C° 0 mm 4 mps 755 mmHg 54%
    17:00 +6°C° 0 mm 4 mps 755 mmHg 57%
    18:00 +5°C° 0 mm 4 mps 756 mmHg 63%
    19:00 +4°C° 0 mm 3 mps 756 mmHg 69%
    20:00 +2°C° 0 mm 3 mps 757 mmHg 75%
    21:00 +2°C° 0 mm 3 mps 757 mmHg 75%
    22:00 +2°C° 0 mm 2 mps 758 mmHg 75%
    23:00 +1°C° 0 mm 2 mps 758 mmHg 74%

    27 Marzo, Miércoles

    Tiempo Temperatura Precipitaciones Viento Presión Humedad
    00:00 +1°C° 0 mm 2 mps 758 mmHg 74%
    01:00 +1°C° 0 mm 2 mps 758 mmHg 74%
    02:00 -1°C° 0 mm 3 mps 758 mmHg 74%
    03:00 -1°C° 0 mm 3 mps 758 mmHg 73%
    04:00 -1°C° 0 mm 3 mps 758 mmHg 72%
    05:00 -1°C° 0 mm 3 mps 758 mmHg 70%
    06:00 -1°C° 0 mm 4 mps 758 mmHg 65%
    07:00 0°C° 0 mm 5 mps 758 mmHg 61%
    08:00 +1°C° 0 mm 5 mps 758 mmHg 56%
    09:00 +2°C° 0 mm 6 mps 758 mmHg 53%
    10:00 +4°C° 0 mm 6 mps 758 mmHg 50%
    11:00 +5°C° 0 mm 7 mps 758 mmHg 47%
    12:00 +5°C° 0 mm 7 mps 758 mmHg 49%
    13:00 +6°C° 0 mm 7 mps 757 mmHg 51%
    14:00 +6°C° 0 mm 7 mps 757 mmHg 53%
    15:00 +7°C° 0 mm 6 mps 757 mmHg 56%
    16:00 +7°C° 0 mm 5 mps 757 mmHg 59%
    17:00 +6°C° 0 mm 4 mps 757 mmHg 62%
    18:00 +6°C° 0 mm 4 mps 757 mmHg 64%
    19:00 +7°C° 0 mm 3 mps 757 mmHg 67%
    20:00 +6°C° 0 mm 2 mps 757 mmHg 70%
    21:00 +5°C° 0 mm 3 mps 757 mmHg 71%
    22:00 +5°C° 0 mm 4 mps 757 mmHg 72%
    23:00 +5°C° 0 mm 4 mps 757 mmHg 72%
    Mostrar más